SWAS 1 25560U 98071A 21111.58402278 .00000323 00000-0 38696-4 0 9999 2 25560 69.8987 328.2927 0010577 244.5215 115.4847 14.94048683215020 PEGASUS R/B 1 25561U 98071B 21111.15872004 .00000226 00000-0 31120-4 0 9998 2 25561 69.9176 17.7303 0009463 237.0403 122.9843 14.91944233214366